425  
ASUS41 KCLE 202112  
RWRCLE  
OHIO REGIONAL WEATHER ROUNDUP  
NATIONAL WEATHER SERVICE WILMINGTON, OH  
400 PM EST SUN JAN 20 2019  
 
NOTE: "FAIR" INDICATES FEW OR NO CLOUDS BELOW 12,000 FEET WITH NO  
SIGNIFICANT WEATHER AND/OR S TO VISIBILITY
.  
 
OHZ001>008-015>018-024>027-034-035-043-044-202200-  
NORTHWEST OHIO  
 
CITY SKY/WX TMP DP RH WIND PRES REMARKS
 
DEFIANCE FAIR 11 -5 48 NW15 30.23R WCI -5  
FINDLAY FAIR 12 -5 46 NW16G25 30.19R WCI -5  
TOLEDO EXPRESS FAIR 12 -6 44 N16 30.20R WCI -5  
TOLEDO EXEC FAIR 12 -3 51 NW14 30.20R WCI -3  
LIMA FAIR 10 -4 53 NW12 30.19R WCI -5  

 
 
OHZ009>014-019>023-028>033-038-089-202200-  
NORTHEAST OHIO  
 
CITY SKY/WX TMP DP RH WIND PRES REMARKS
 
CLE-HOPKINS CLOUDY 14 6 70 N21G28 30.12R BLWGSNOWWCI -4  
CLE-LAKEFRONT SNOW 16 8 71 NW30 30.09R VSB 1/2 WCI -4  
CUY CO. ARPT LGT SNOW 12 9 85 N17G28 30.06R VSB 3/4 WCI -5  
LORAIN-ELYRIA FLURRIES 12 0 58 N24G35 30.13R WCI -8  
ASHTABULA FAIR 12 -4 48 NW18G33 30.03R WCI -6  
AKRON-CANTON SNOW 13 4 67 N20G29 30.02R VSB 1/2 WCI -5  
WOOSTER LGT SNOW 11 5 77 NW23G29 30.07R WCI -9  
MANSFIELD LGT SNOW 9 4 80 NW12 30.10R WCI -6  
YOUNGSTOWN PTSUNNY 10 0 63 NW24G30 29.99R WCI -10  

 
 
OHZ042-051>053-060>062-070>072-077>081-202200-  
SOUTHWEST OHIO  
 
CITY SKY/WX TMP DP RH WIND PRES REMARKS
 
CINC-COVINGTON FAIR 16 0 49 N16 30.22R WCI 1  
CINC-LUNKEN FAIR 16 -2 45 N14G22 30.28R WCI 2  
HAMILTON FAIR 15 -2 46 N10G21 30.27R WCI 2  
DAYTON FAIR 11 -2 56 NW14 30.22R WCI -5  
WRIGHT-PAT AFB FAIR 12 -3 50 NW15 30.21R WCI -4  
DAYTON GENERAL FAIR 14 3 61 N14 30.20R WCI -1  
WILMINGTON FAIR 11 -3 53 N18 30.18R WCI -7  

 
 
OHZ036-037-039>041-045>050-054>059-063>069-073>076-082>088-202200-  
CENTRAL AND SOUTHEAST OHIO  
 
CITY SKY/WX TMP DP RH WIND PRES REMARKS
 
COLUMBUS PTSUNNY 12 2 64 NW10 30.17R WCI -1  
OSU AIRPORT FAIR 9 -1 64 NW14 30.16R WCI -7  
BOLTON FIELD SUNNY 10 1 67 N12 30.18R WCI -4  
RICKENBACK AFB FAIR 11 1 66 NW13 30.18R WCI -5  
NEWARK FAIR 11 1 64 NW13 30.14R WCI -4  
MARION FAIR 10 -2 58 NW13 30.16R WCI -5  
LANCASTER CLOUDY 11 3 70 NW10 30.16R WCI -3  
ZANESVILLE FLURRIES 13 4 67 W16G23 30.09R WCI -3  
NEW PHILLY LGT SNOW 14 6 70 NW17G26 30.06R WCI -3  

 
 
 
CLICK HERE TO GO TO PREVIOUS BULLETINS.

The Nexlab OH Page
The Nexlab PA Page Main Text Page